EW5495 Weather Reports


time (UTC)temp
F
wind
direction
speed
knots
gust
knots
rain 1hr
in
rain 24hr
in
rain mn
in
humidity
%
barometer
mb
20260510044407 76 134 2.6 7.8 0.00 0.00 0.00 61 1026.2
20260510042409 76 167 2.6 11.3 0.00 0.00 0.00 62 1026.1
20260510040406 76 154 2.6 7.8 0.00 0.00 0.00 60 1026.2
20260510035406 77 137 1.7 10.4 0.00 0.00 0.00 60 1026.1
20260510034407 76 160 4.3 7.8 0.00 0.00 0.00 58 1026.0
20260510033406 76 175 2.6 11.3 0.00 0.00 0.00 60 1026.2
20260510032407 77 171 3.5 7.0 0.00 0.00 0.00 61 1026.2
20260510031404 76 133 5.2 7.8 0.00 0.00 0.00 60 1026.2
20260510030356 76 94 3.5 12.2 0.00 0.00 0.00 60 1026.5
20260510025355 77 151 2.6 5.2 0.00 0.00 0.00 61 1026.5
20260510024354 76 175 3.5 13.0 0.00 0.00 0.00 61 1026.5
20260510023351 75 119 7.8 13.0 0.00 0.00 0.00 62 1026.5
20260510022350 75 171 1.7 10.4 0.00 0.00 0.00 63 1026.5
20260510021353 75 168 3.5 11.3 0.00 0.00 0.00 63 1026.7
20260510020343 76 116 3.5 8.7 0.00 0.00 0.00 62 1026.9
20260510015337 75 132 4.3 7.0 0.00 0.00 0.00 62 1027.0
20260510012336 73 227 2.6 4.3 0.00 0.00 0.00 65 1028.0
20260510011336 73 260 1.7 5.2 0.00 0.00 0.00 66 1028.0
20260510005334 71 279 2.6 7.0 0.00 0.00 0.00 66 1028.3
20260510004334 71 253 2.6 7.0 0.00 0.00 0.00 68 1028.3
20260510003334 70 241 4.3 7.8 0.00 0.00 0.00 68 1028.4
20260510002335 69 279 1.7 8.7 0.00 0.00 0.00 69 1028.6
20260510001334 69 267 2.6 7.8 0.00 0.00 0.00 70 1028.7
20260510000334 68 291 2.6 7.8 0.00 0.00 0.00 70 1029.0
20260509235333 68 251 4.3 7.8 0.00 0.00 0.00 70 1028.9
20260509234334 67 241 5.2 7.8 0.00 0.00 0.00 71 1028.8
20260509233335 66 236 1.7 7.0 0.00 0.00 0.00 72 1028.8
20260509232333 66 229 3.5 7.0 0.00 0.00 0.00 73 1028.8
20260509231337 65 245 1.7 5.2 0.00 0.00 0.00 74 1028.6
20260509230334 65 246 2.6 7.0 0.00 0.00 0.00 73 1028.6
20260509225334 64 245 2.6 5.2 0.00 0.00 0.00 74 1028.3
20260509224332 63 236 2.6 5.2 0.00 0.00 0.00 76 1028.2
20260509223331 62 239 1.7 5.2 0.00 0.00 0.00 78 1028.3
20260509222334 61 245 0.9 4.3 0.00 0.00 0.00 80 1028.3
20260509221333 60 251 0.9 7.0 0.00 0.00 0.00 81 1028.0
20260509220332 59 273 2.6 7.8 0.00 0.00 0.00 84 1027.9
20260509215331 58 246 2.6 4.3 0.00 0.00 0.00 87 1027.7
20260509214330 57 246 2.6 4.3 0.00 0.00 0.00 88 1027.5
20260509213330 56 253 2.6 5.2 0.00 0.00 0.00 89 1027.6
20260509212331 55 173 0.9 5.2 0.00 0.00 0.00 89 1027.5
20260509210332 54 249 1.7 4.3 0.00 0.00 0.00 90 1027.3
20260509205331 54 251 2.6 7.0 0.00 0.00 0.00 90 1026.9
20260509204329 54 252 2.6 4.3 0.00 0.00 0.00 89 1026.8
20260509202329 54 255 1.7 3.5 0.00 0.00 0.00 89 1026.6
20260509201334 54 256 0.9 4.3 0.00 0.00 0.00 89 1026.5
20260509200328 54 252 1.7 4.3 0.00 0.00 0.00 89 1026.5
20260509194328 54 242 1.7 4.3 0.00 0.00 0.00 89 1026.5
20260509192328 54 238 0.9 5.2 0.00 0.00 0.00 89 1026.2
20260509191328 55 241 0.9 1.7 0.00 0.00 0.00 89 1026.1
20260509185327 55 241 3.5 7.0 0.00 0.00 0.00 89 1025.9
20260509184328 55 225 1.7 4.3 0.00 0.00 0.00 90 1025.8
20260509183324 55 224 2.6 4.3 0.00 0.00 0.00 90 1025.7
20260509182325 55 218 1.7 5.2 0.00 0.00 0.00 90 1025.9
20260509181324 55 215 3.5 4.3 0.00 0.00 0.00 90 1025.7
20260509180323 55 196 2.6 3.5 0.00 0.00 0.00 90 1026.0
20260509175326 54 194 1.7 3.5 0.00 0.00 0.00 90 1025.7
20260509174325 54 194 1.7 1.7 0.00 0.00 0.00 90 1025.6
20260509173325 54 194 0.9 3.5 0.00 0.00 0.00 90 1025.6
20260509172323 54 194 1.7 4.3 0.00 0.00 0.00 90 1025.5
20260509170323 54 193 0.9 3.5 0.00 0.00 0.00 90 1025.7
20260509165324 54 193 1.7 1.7 0.00 0.00 0.00 90 1025.6
20260509163324 55 193 0.9 1.7 0.00 0.00 0.00 89 1025.7
20260509162323 55 193 0.9 1.7 0.00 0.00 0.00 89 1025.6
20260509160323 55 193 1.7 3.5 0.00 0.00 0.00 89 1025.8
20260509155322 55 188 1.7 3.5 0.00 0.00 0.00 89 1025.7
20260509153320 55 188 1.7 1.7 0.00 0.00 0.00 89 1025.8
20260509152320 55 188 0.9 1.7 0.00 0.00 0.00 90 1025.8
20260509151320 55 188 1.7 3.5 0.00 0.00 0.00 90 1025.9
20260509150319 55 188 0.0 1.7 0.00 0.00 0.00 90 1026.1
20260509145319 55 188 0.0 1.7 0.00 0.00 0.00 90 1025.9
20260509144319 55 188 0.0 1.7 0.00 0.00 0.00 90 1025.9
20260509143319 55 188 1.7 3.5 0.00 0.00 0.00 89 1025.9
20260509140318 55 188 0.0 0.9 0.00 0.00 0.00 89 1026.2
20260509135318 56 188 0.9 0.9 0.00 0.00 0.00 89 1025.9
20260509134318 56 188 0.9 1.7 0.00 0.00 0.00 89 1025.9
20260509133319 56 188 0.9 1.7 0.00 0.00 0.00 89 1025.9
20260509132318 56 188 0.9 3.5 0.00 0.00 0.00 89 1026.0
20260509131319 56 187 0.9 1.7 0.00 0.00 0.00 89 1026.1
20260509130317 56 187 0.0 0.9 0.00 0.00 0.00 88 1026.3
20260509125318 57 187 0.0 1.7 0.00 0.00 0.00 88 1026.0
20260509124318 57 187 1.7 1.7 0.00 0.00 0.00 87 1025.9
20260509122317 57 188 0.0 0.9 0.00 0.00 0.00 86 1026.1
20260509121317 58 187 0.0 1.7 0.00 0.00 0.00 86 1026.0
20260509120316 58 187 1.7 3.5 0.00 0.00 0.00 86 1026.2
20260509115318 58 187 0.9 3.5 0.00 0.00 0.00 87 1026.2
20260509114316 58 171 0.9 1.7 0.00 0.00 0.00 87 1026.2
20260509113315 58 165 0.0 0.0 0.00 0.00 0.00 87 1026.2
20260509112316 58 165 0.0 0.0 0.00 0.00 0.00 86 1026.1
20260509111315 59 165 0.0 0.0 0.00 0.00 0.00 86 1026.2
20260509110327 59 165 0.0 0.0 0.00 0.00 0.00 85 1026.2
20260509105314 59 165 0.0 0.0 0.00 0.00 0.00 85 1026.1
20260509104313 60 165 0.0 0.0 0.00 0.00 0.00 85 1026.0
20260509103314 60 165 0.0 0.0 0.00 0.00 0.00 84 1025.9
20260509102316 60 165 0.0 0.0 0.00 0.00 0.00 82 1025.8
20260509101314 61 165 0.0 0.0 0.00 0.00 0.00 81 1025.8
20260509095313 62 165 0.0 0.9 0.00 0.00 0.00 79 1025.9
20260509094313 62 165 0.9 0.9 0.00 0.00 0.00 77 1025.7
20260509093312 62 165 0.0 0.9 0.00 0.00 0.00 74 1025.5
20260509092314 63 165 0.0 0.0 0.00 0.00 0.00 72 1025.5
20260509091314 64 165 0.0 0.0 0.00 0.00 0.00 70 1025.3
20260509090312 64 165 0.0 0.9 0.00 0.00 0.00 69 1025.3
20260509085313 65 165 0.0 0.0 0.00 0.00 0.00 68 1025.1
20260509084311 65 165 0.0 0.9 0.00 0.00 0.00 68 1024.9
20260509083311 65 165 0.9 0.9 0.00 0.00 0.00 67 1024.9
20260509082312 65 165 0.0 0.9 0.00 0.00 0.00 66 1024.7
20260509081310 66 165 0.9 1.7 0.00 0.00 0.00 65 1024.5
20260509080309 67 165 0.0 0.9 0.00 0.00 0.00 63 1024.6
20260509075310 67 165 0.0 0.9 0.00 0.00 0.00 61 1024.4
20260509074310 68 165 0.0 0.9 0.00 0.00 0.00 59 1024.3
20260509073310 69 165 0.0 0.9 0.00 0.00 0.00 56 1024.2
20260509071311 70 89 0.9 1.7 0.00 0.00 0.00 53 1024.2
20260509070308 71 99 0.9 5.2 0.00 0.00 0.00 51 1024.1
20260509063307 73 134 2.6 10.4 0.00 0.00 0.00 50 1023.4
20260509061311 74 177 2.6 5.2 0.00 0.00 0.00 50 1023.3
20260509060308 74 68 2.6 5.2 0.00 0.00 0.00 49 1023.3
20260509055307 74 105 5.2 10.4 0.00 0.00 0.00 48 1023.1
20260509053308 75 103 0.9 7.0 0.00 0.00 0.00 47 1023.1
20260509052307 75 108 1.7 5.2 0.00 0.00 0.00 47 1022.9
20260509051306 75 160 0.9 3.5 0.00 0.00 0.00 48 1023.1
20260509050318 75 156 2.6 7.8 0.00 0.00 0.00 47 1023.2